When you browse on this site, cookies collect data to enhance your experience and personalize the content and advertising you see.
Visit our Privacy Policy to learn more. By continuing to use the site, you agree to this use of cookies and data.
  • In Lithuania
  • List of Countries
  • For 7 days
  • Water Temperature
  • Satellite Maps
  • Weather Map
  • Weather Widgets
  • user-avatar
    Login

    Hourly Weather Port Gentil

    Today, 20 November, Tuesday

    Time Temperature Precipitation Wind Pressure Humidity
    00:00 +27°C° 1 mm 4 mps 758 mmHg 92%
    01:00 +27°C° 0 mm 4 mps 757 mmHg 93%
    02:00 +27°C° 1.4 mm 4 mps 757 mmHg 92%
    03:00 +27°C° 1.4 mm 4 mps 757 mmHg 92%
    04:00 +27°C° 1.4 mm 3 mps 757 mmHg 91%
    05:00 +27°C° 0.9 mm 3 mps 757 mmHg 90%
    06:00 +27°C° 0.9 mm 3 mps 758 mmHg 89%
    07:00 +28°C° 0 mm 3 mps 758 mmHg 90%
    08:00 +29°C° 0.2 mm 3 mps 759 mmHg 84%
    09:00 +30°C° 0.2 mm 3 mps 759 mmHg 79%
    10:00 +33°C° 0.2 mm 3 mps 759 mmHg 73%
    11:00 +33°C° 0.1 mm 4 mps 759 mmHg 72%
    12:00 +33°C° 0.1 mm 4 mps 758 mmHg 70%
    13:00 +33°C° 0 mm 5 mps 758 mmHg 74%
    14:00 +32°C° 0.8 mm 5 mps 758 mmHg 76%
    15:00 +32°C° 0.8 mm 5 mps 757 mmHg 78%
    16:00 +30°C° 0.8 mm 5 mps 757 mmHg 80%
    17:00 +29°C° 0.7 mm 5 mps 757 mmHg 83%
    18:00 +28°C° 0.7 mm 4 mps 758 mmHg 87%
    19:00 +27°C° 0.7 mm 4 mps 758 mmHg 91%
    20:00 +27°C° 1.2 mm 4 mps 758 mmHg 91%
    21:00 +27°C° 1.2 mm 3 mps 759 mmHg 91%
    22:00 +27°C° 1.2 mm 3 mps 759 mmHg 92%
    23:00 +27°C° 2 mm 3 mps 759 mmHg 91%

    Tomorrow, 21 November, Wednesday

    Time Temperature Precipitation Wind Pressure Humidity
    00:00 +27°C° 2 mm 3 mps 759 mmHg 90%
    01:00 +27°C° 2 mm 2 mps 759 mmHg 89%
    02:00 +27°C° 0.1 mm 2 mps 759 mmHg 89%
    03:00 +27°C° 0.1 mm 2 mps 758 mmHg 89%
    04:00 +27°C° 0.1 mm 2 mps 758 mmHg 89%
    05:00 +27°C° 0 mm 3 mps 758 mmHg 89%
    06:00 +27°C° 0 mm 3 mps 758 mmHg 88%
    07:00 +28°C° 0 mm 4 mps 758 mmHg 88%
    08:00 +29°C° 0 mm 4 mps 759 mmHg 83%
    09:00 +30°C° 0 mm 3 mps 759 mmHg 78%
    10:00 +31°C° 0 mm 3 mps 759 mmHg 73%
    11:00 +31°C° 0.5 mm 3 mps 759 mmHg 73%
    12:00 +31°C° 0.5 mm 3 mps 758 mmHg 74%
    13:00 +31°C° 0.5 mm 3 mps 758 mmHg 75%
    14:00 +31°C° 0.2 mm 3 mps 758 mmHg 77%
    15:00 +30°C° 0.2 mm 4 mps 757 mmHg 78%
    16:00 +30°C° 0.2 mm 4 mps 757 mmHg 80%
    17:00 +29°C° 0.3 mm 4 mps 757 mmHg 83%
    18:00 +28°C° 0.3 mm 4 mps 757 mmHg 87%
    19:00 +28°C° 0.3 mm 5 mps 758 mmHg 90%
    20:00 +27°C° 1 mm 5 mps 758 mmHg 91%
    21:00 +27°C° 1 mm 5 mps 759 mmHg 91%
    22:00 +27°C° 1 mm 5 mps 759 mmHg 92%
    23:00 +27°C° 0.9 mm 4 mps 759 mmHg 91%

    Day after tomorrow, 22 November, Thursday

    Time Temperature Precipitation Wind Pressure Humidity
    00:00 +27°C° 0.9 mm 4 mps 759 mmHg 91%
    01:00 +27°C° 0.9 mm 4 mps 759 mmHg 90%
    02:00 +27°C° 0.3 mm 4 mps 758 mmHg 90%
    03:00 +27°C° 0.3 mm 4 mps 758 mmHg 89%
    04:00 +27°C° 0.3 mm 4 mps 757 mmHg 88%
    05:00 +27°C° 0.1 mm 4 mps 758 mmHg 88%
    06:00 +27°C° 0.1 mm 4 mps 758 mmHg 88%
    07:00 +27°C° 0.1 mm 4 mps 758 mmHg 87%
    08:00 +29°C° 0 mm 4 mps 759 mmHg 83%
    09:00 +30°C° 0 mm 3 mps 759 mmHg 78%
    10:00 +31°C° 0 mm 3 mps 760 mmHg 74%
    11:00 +31°C° 0.1 mm 3 mps 759 mmHg 72%
    12:00 +33°C° 0.1 mm 4 mps 759 mmHg 70%
    13:00 +33°C° 0.1 mm 4 mps 758 mmHg 69%
    14:00 +32°C° 0.4 mm 4 mps 757 mmHg 71%
    15:00 +32°C° 0.4 mm 4 mps 757 mmHg 74%
    16:00 +30°C° 0.4 mm 5 mps 756 mmHg 77%
    17:00 +29°C° 0.1 mm 5 mps 757 mmHg 81%
    18:00 +28°C° 0.1 mm 4 mps 757 mmHg 84%
    19:00 +27°C° 0.1 mm 4 mps 758 mmHg 88%
    20:00 +27°C° 0 mm 4 mps 758 mmHg 88%
    21:00 +27°C° 0 mm 3 mps 759 mmHg 89%
    22:00 +27°C° 0 mm 3 mps 759 mmHg 89%
    23:00 +27°C° 0 mm 3 mps 759 mmHg 90%

    23 November, Friday

    Time Temperature Precipitation Wind Pressure Humidity
    00:00 +27°C° 0 mm 2 mps 758 mmHg 91%
    01:00 +26°C° 0 mm 2 mps 758 mmHg 91%
    02:00 +26°C° 0 mm 2 mps 758 mmHg 92%
    03:00 +26°C° 0 mm 1 mps 757 mmHg 93%
    04:00 +26°C° 0 mm 1 mps 757 mmHg 94%
    05:00 +26°C° 0 mm 1 mps 758 mmHg 93%
    06:00 +26°C° 0 mm 1 mps 758 mmHg 93%
    07:00 +27°C° 0 mm 1 mps 758 mmHg 93%
    08:00 +27°C° 0 mm 2 mps 759 mmHg 91%
    09:00 +27°C° 0 mm 2 mps 759 mmHg 89%
    10:00 +28°C° 0 mm 2 mps 759 mmHg 87%
    11:00 +30°C° 0 mm 2 mps 758 mmHg 79%
    12:00 +32°C° 0 mm 1 mps 758 mmHg 70%
    13:00 +35°C° 0 mm 1 mps 757 mmHg 61%
    14:00 +34°C° 0 mm 1 mps 756 mmHg 62%
    15:00 +34°C° 0 mm 2 mps 756 mmHg 63%
    16:00 +32°C° 0 mm 2 mps 755 mmHg 64%
    17:00 +31°C° 0 mm 2 mps 756 mmHg 70%
    18:00 +30°C° 0 mm 2 mps 756 mmHg 77%
    19:00 +28°C° 0 mm 3 mps 757 mmHg 84%
    20:00 +28°C° 0 mm 2 mps 757 mmHg 84%
    21:00 +28°C° 0 mm 2 mps 758 mmHg 85%
    22:00 +27°C° 0 mm 2 mps 758 mmHg 86%
    23:00 +27°C° 0 mm 2 mps 758 mmHg 86%

    24 November, Saturday

    Time Temperature Precipitation Wind Pressure Humidity
    00:00 +27°C° 0 mm 2 mps 758 mmHg 87%
    01:00 +27°C° 0 mm 2 mps 757 mmHg 87%
    02:00 +27°C° 0 mm 2 mps 757 mmHg 87%
    03:00 +27°C° 0 mm 2 mps 757 mmHg 88%
    04:00 +27°C° 0 mm 2 mps 757 mmHg 88%
    05:00 +27°C° 0 mm 2 mps 757 mmHg 87%
    06:00 +27°C° 0 mm 3 mps 757 mmHg 86%
    07:00 +28°C° 0 mm 3 mps 758 mmHg 85%
    08:00 +29°C° 0 mm 3 mps 758 mmHg 81%
    09:00 +30°C° 0 mm 3 mps 759 mmHg 77%
    10:00 +30°C° 0 mm 3 mps 759 mmHg 73%
    11:00 +30°C° 0 mm 3 mps 758 mmHg 73%
    12:00 +30°C° 0 mm 4 mps 758 mmHg 73%
    13:00 +30°C° 0 mm 4 mps 757 mmHg 73%
    14:00 +32°C° 0.1 mm 4 mps 757 mmHg 73%
    15:00 +32°C° 0.1 mm 5 mps 756 mmHg 72%
    16:00 +32°C° 0.1 mm 5 mps 756 mmHg 71%
    17:00 +30°C° 0 mm 5 mps 756 mmHg 75%
    18:00 +29°C° 0 mm 5 mps 757 mmHg 80%
    19:00 +28°C° 0 mm 5 mps 757 mmHg 84%
    20:00 +28°C° 0 mm 4 mps 758 mmHg 85%
    21:00 +28°C° 0 mm 4 mps 758 mmHg 86%
    22:00 +27°C° 0 mm 4 mps 759 mmHg 87%
    23:00 +27°C° 0.2 mm 4 mps 758 mmHg 87%

    25 November, Sunday

    Time Temperature Precipitation Wind Pressure Humidity
    00:00 +27°C° 0.2 mm 4 mps 758 mmHg 87%
    01:00 +27°C° 0.2 mm 4 mps 758 mmHg 88%
    02:00 +27°C° 0.9 mm 4 mps 757 mmHg 89%
    03:00 +27°C° 0.9 mm 4 mps 757 mmHg 89%
    04:00 +26°C° 0.9 mm 4 mps 757 mmHg 90%
    05:00 +27°C° 0.1 mm 4 mps 757 mmHg 89%
    06:00 +27°C° 0.1 mm 4 mps 758 mmHg 88%
    07:00 +27°C° 0.1 mm 4 mps 758 mmHg 87%
    08:00 +29°C° 0.1 mm 4 mps 758 mmHg 81%
    09:00 +30°C° 0.1 mm 4 mps 758 mmHg 75%
    10:00 +33°C° 0.1 mm 4 mps 759 mmHg 69%
    11:00 +32°C° 0.6 mm 4 mps 758 mmHg 71%
    12:00 +32°C° 0.6 mm 4 mps 757 mmHg 72%
    13:00 +32°C° 0.6 mm 4 mps 757 mmHg 74%
    14:00 +32°C° 0.4 mm 5 mps 756 mmHg 75%
    15:00 +30°C° 0.4 mm 5 mps 756 mmHg 76%
    16:00 +30°C° 0.4 mm 5 mps 755 mmHg 78%
    17:00 +29°C° 0.3 mm 5 mps 756 mmHg 82%
    18:00 +28°C° 0.3 mm 5 mps 757 mmHg 85%
    19:00 +27°C° 0.3 mm 5 mps 757 mmHg 89%
    20:00 +27°C° 0.3 mm 4 mps 757 mmHg 90%
    21:00 +27°C° 0.3 mm 4 mps 758 mmHg 90%
    22:00 +27°C° 0.3 mm 4 mps 758 mmHg 91%
    23:00 +27°C° 0.6 mm 4 mps 758 mmHg 92%
    Show more